OPS 2112

导读

OPS 2112是美国1976年6月26日发射的一颗军用侦察卫星,归属美国保密卫星计划体系,服务于冷战时期太空战略情报获取需求。 发射依托美国成熟航天运载系统,进入近地轨道执行任务,主要承担成像侦察或电子信号情报收集任务,为美国提供战略空间监测能力,是冷战美太空军事化布局的组成部分,任务结束后已再入大气层销毁,相关任务细节长期处于保密状态。

Basic Information
目录编号:
8916
目录名称:
OPS 2112
国际标识:
1976-059A
轨道中心:
EARTH
卫星名称:
OPS 2112
卫星全名:
--
卫星状态:
在轨 (已飞行18342 天)
发射日期:
1976-06-26 UTC
国别 :
美国 (US)
星等 :
--
This satellite is enrolled in the Space Conjunction Data Service (SCDS) and the current flight risk assessment level is: No High Risk
Orbit Information
数据来源 国际轨道数据 AOE轨道数据
星历时间 2026-09-14T06:49:42+0800
6小时前
查看轨道信息
2026-09-13T01:00:00+0800
1天前
查看轨道信息
半长轴 42391.152km 42391.181km
偏心率 0.000476 0.0004642
轨道倾角 3.124° 3.127°
近地点辐角 263.253° 260.619°
升交点赤经 267.289° 267.301°
平近点角 253.548° 171.107°
近地点 35992.836km 35993.366km
远地点 36033.194km 36032.722km
周期 1447.680分钟 1447.681分钟
每日圈数 0.994695 0.994694
Detailed Information
使用方式:
暂无
2D Orbit Map
3D Orbit Map
Orbit Altitude Analysis Chart
Orbit Inclination Analysis Chart
Orbit Comprehensive Analysis Chart
View Comprehensive Chart
Miss Distance Evolution Trend with All Objects Subscribe to Flight Safety Assessment
Collision Probability Evolution Trend with All Objects Subscribe to Flight Safety Assessment